Accueil
METAR-TAF:

METAR-TAF

Aéroports :

Pontoise, France

Aéroport de Pontoise - Cormeilles-en-Vexin

latitude: 49-05-48N, longitude: 002-02-27E, altitude: 99 m

Observation

Le bulletin a été fait il y a 20 minutes, à 09:00 UTC
Vent 10 kt de ouest
Température 17°C
Humidité 72%
Pression 1020 hPa
Visibilité 10 km ou plus
Nuages fragmentés à une hauteur de 2200 ft

METAR: LFPT 190900Z AUTO 27010KT 9999 BKN022 17/12 Q1020

Heure: 11:20 (09:20 UTC)


TAF: absent

Observations et prévisions météorologiques de plus de 4000 aéroports (messages METAR et TAF).

Les stations disponibles sont représentées par des disques jaunes et rouges sur la carte.

Passer la souris dessus pour voir le nom de la station.

Cliquer dessus pour voir les observations et prévisions météorologiques.

Pour changer de carte: cliquez sur les boutons verts avec une croix noire pour zoomer, sur le bouton vert avec un tiret pour effectuer un zoom arrière, ou sur les flèches vertes pour les cartes adjacentes.


METAR-TAF: